Regional Weather Roundup
Issued by NWS Jackson, KY

Home | Current Version | Previous Version | Graphics & Text | Print | Product List | Glossary On
Versions: 1 2 3 4 5 6 7 8 9 10 11 12 13 14 15 16 17 18 19 20 21 22 23 24 25 26 27 28 29 30 31 32 33 34 35 36 37 38 39 40 41 42 43 44 45 46 47 48 49 50
000
ASUS43 KJKL 161811
RWRJKL

EAST KENTUCKY HOURLY WEATHER ROUNDUP
NATIONAL WEATHER SERVICE JACKSON KY
200 PM EDT TUE SEP 16 2014

NOTE: "FAIR" INDICATES FEW OR NO CLOUDS BELOW 12,000 FEET WITH
NO SIGNIFICANT WEATHER AND/OR OBSTRUCTIONS TO VISIBILITY.

* THESE REPORTS ARE NOT UNDER NWS QUALITY CONTROL AND MAY NOT
  REPORT WEATHER SUCH AS PRECIPITATION AND FOG.

KYZ079-080-083-085-087-088-110-112-115-119-120-161900
...EASTERN KENTUCKY...

CITY           SKY/WX    TMP DP  RH WIND       PRES   REMARKS
JACKSON        CLOUDY    66  62  87 CALM      30.11S
6HR MIN TEMP:  62; 6HR MAX TEMP:  66; 6HR PCP:  0.01;

LONDON         CLOUDY    68  61  78 NW5       30.11S
6HR MIN TEMP:  66; 6HR MAX TEMP:  68; 6HR PCP:  0.01;

MONTICELLO*    PTSUNNY   69  64  84 CALM      30.12F
6HR MIN TEMP:  66; 6HR MAX TEMP:  69;

WILLIAMSBURG*  CLOUDY    64  64 100 N5        30.11S
MIDDLESBORO*   CLOUDY    69  64  82 N6        30.10R
6HR MIN TEMP:  64; 6HR MAX TEMP:  71;

HARLAN APT*    CLOUDY    64  64 100 MISG      30.10F
HAZARD APT*    CLOUDY    70  64  83 CALM      30.09
BLACK MTN*       N/A     57  57 100 N2          N/A
BIG SANDY*     CLOUDY    63  60  91 NE3       30.11S
6HR MIN TEMP:  61; 6HR MAX TEMP:  63;

MOREHEAD APT*  CLOUDY    59  57  94 CALM      30.15S
$$

KYZ035-036-041-042-044-050-067-078-099-161900
...CENTRAL KENTUCKY...

CITY           SKY/WX    TMP DP  RH WIND       PRES   REMARKS
MT STERLING*   CLOUDY    59  57  94 N8        30.15S FOG
FLEMING/MASON* CLOUDY    61  55  82 N8        30.15S
DANVILLE*      CLOUDY    64  59  82 N9        30.13F
RICHMOND*      CLOUDY    66  57  72 N8        30.11F
LEXINGTON      PTSUNNY   67  57  70 N6        30.13F
6HR MIN TEMP:  61; 6HR MAX TEMP:  67;

FRANKFORT      CLOUDY    65  56  72 NW7       30.13S
6HR MIN TEMP:  60; 6HR MAX TEMP:  66;

$$

KYZ091>093-OHZ055-061-077-WVZ005-015-034-035-042-161900
...SOUTHERN OHIO/WEST VIRGINIA...

CITY           SKY/WX    TMP DP  RH WIND       PRES   REMARKS
COVINGTON      CLOUDY    61  51  70 NE7       30.16S
COLUMBUS       CLOUDY    63  49  60 CALM      30.14F
DAYTON         CLOUDY    60  51  72 NE5       30.17F
WILMINGTON     CLOUDY    58  49  72 E6        30.15F
HUNTINGTON     CLOUDY    63  57  81 N7        30.11F
CHARLESTON     CLOUDY    65  57  75 CALM      30.10F
PINEVILLE*     CLOUDY    68  64  87 MISG      30.14F
BECKLEY        CLOUDY    62  58  86 NE6       30.12S
BLUEFIELD      CLOUDY    62  58  86 NW6       30.13F
$$

VAZ002-007-008-TNZ017-027-036-066-071-161900
...SOUTHWEST VIRGINIA/EAST TENNESSEE...

CITY           SKY/WX    TMP DP  RH WIND       PRES   REMARKS
WISE*          CLOUDY    66  63  88 NW6       30.14S
JONESVILLE*    CLOUDY    72  63  73 NW3       30.11S
ABINGDON*      CLOUDY    72  65  80 W9        30.09F
BRISTOL        CLOUDY    74  63  68 W9        30.08S
KNOXVILLE      PTSUNNY   79  65  62 VRB5      30.06F
OAK RIDGE      PTSUNNY   78  66  66 VRB5      30.08F
CROSSVILLE     PTSUNNY   72  63  73 NW12      30.13S
NASHVILLE      CLOUDY    69  62  78 N10       30.12F
$$

...KEY TO REMARKS...
VSB - VISIBILITY IN MILES
WCI - WIND CHILL INDEX
HX  - HEAT INDEX

$$



USA.gov is the U.S. government's official web portal to all federal, state and local government web resources and services.